Погода в Большой Луке

Россия / Пензенская область     53°42′12″N   42°54′24″E
темп.,
°C
ветер,
м/с
пор.,
м/с
влажн.,
%
обл.,
%
осадки,
мм/ч
давл.,
гПа
погр.,
м
25 июня, сб
сб2500:00+14ссв368854 0.0 101394
03:00+13ссв33853 0.0 101433
06:00+16ссв35812 0.0 1015139
09:00+21ссв46644 0.0 1016553
12:00+24ссв56532 0.0 10161599
15:00+24ссв57520 0.0 10161678
18:00+23св376570 0.0 1016418
21:00+19ссв337978 0.0 101746
26 июня, вс
вс2600:00+17ссв36800 0.0 101892
03:00+15ссв37870 0.0 1019107
06:00+17ссв36840 0.0 1020174
09:00+22ссв46670 0.0 1020669
12:00+24св57540 0.0 10201331
15:00+25св58510 0.0 10201717
18:00+24всв46655 0.0 1020428
21:00+18вюв34840 0.0 102153
27 июня, пн
пн2700:00+16ююв22810 0.0 102212
03:00+15юз22810 0.0 102220
06:00+17юз34800 0.0 1022121
09:00+22зюз56670 0.0 1021515
12:00+27з56580 0.0 10191255
15:00+29зсз585479 0.0 10172165
18:00+26зсз610717 1.1 1016310
21:00+21зсз35890 2.3 101770
28 июня, вт
вт2800:00+19ссз49870 0.0 1016168
03:00+16с47950 0.0 1017144
06:00+17ссв5109335 0.0 1018448
09:00+18св68610 0.0 10191014
12:00+20ссв67510 0.0 10201556
15:00+20св57485 0.0 10201907
18:00+19св576083 0.0 1020789
21:00+13всв49740 0.0 1022223
29 июня, ср
ср2900:00+10всв22720 0.0 102327
03:00+9с22760 0.0 102419
06:00+11с24740 0.0 1024149
09:00+16ссв45530 0.0 1023870
12:00+18ссв56459 0.0 10231837
15:00+19ссв56445 0.0 10231991
18:00+18св36551 0.0 1022642
21:00+13св22633 0.0 102317